�������l�o���
Date,Time,MP-1(��Sv/h),MP-2(��Sv/h),MP-3(��Sv/h),MP-4(��Sv/h),MP-5(��Sv/h),MP-6(��Sv/h),MP-7(��Sv/h),MP-8(��Sv/h),����,����(m/s),���J
2017/11/07,00:00,0.910,1.451,0.916,1.719,1.177,0.499,0.908,0.847,�쐼,3.3,��
2017/11/07,00:10,0.910,1.453,0.918,1.717,1.175,0.498,0.909,0.845,�쐼,3.9,��
2017/11/07,00:20,0.910,1.453,0.916,1.721,1.175,0.500,0.909,0.845,��쐼,4.7,��
2017/11/07,00:30,0.909,1.452,0.918,1.717,1.175,0.498,0.908,0.846,��쐼,5.0,��
2017/11/07,00:40,0.910,1.454,0.916,1.722,1.175,0.499,0.908,0.845,��쐼,4.2,��
2017/11/07,00:50,0.906,1.453,0.919,1.717,1.176,0.499,0.908,0.845,��,1.7,��
2017/11/07,01:00,0.911,1.449,0.918,1.719,1.175,0.500,0.908,0.844,��쓌,0.6,��
2017/11/07,01:10,0.911,1.452,0.916,1.717,1.174,0.499,0.908,0.845,�쓌,1.5,��
2017/11/07,01:20,0.909,1.453,0.919,1.720,1.175,0.501,0.908,0.843,�쓌,1.1,��
2017/11/07,01:30,0.909,1.452,0.918,1.721,1.172,0.500,0.909,0.847,��,0.9,��
2017/11/07,01:40,0.911,1.450,0.915,1.720,1.174,0.497,0.909,0.846,-,CALM,��
2017/11/07,01:50,0.909,1.451,0.916,1.719,1.177,0.498,0.908,0.846,���쓌,0.6,��
2017/11/07,02:00,0.908,1.455,0.917,1.719,1.173,0.500,0.908,0.844,�k��,1.1,��
2017/11/07,02:10,0.908,1.453,0.916,1.717,1.175,0.500,0.910,0.845,�k�k��,0.9,��
2017/11/07,02:20,0.910,1.453,0.915,1.719,1.174,0.498,0.907,0.845,�k�k��,1.1,��
2017/11/07,02:30,0.909,1.450,0.917,1.719,1.175,0.499,0.908,0.846,�k,1.2,��
2017/11/07,02:40,0.908,1.452,0.917,1.718,1.174,0.499,0.909,0.846,�k�k��,1.2,��
2017/11/07,02:50,0.908,1.450,0.916,1.717,1.177,0.499,0.908,0.845,���k��,2.3,��
2017/11/07,03:00,0.908,1.452,0.916,1.718,1.173,0.499,0.908,0.845,���k��,3.7,��
2017/11/07,03:10,0.908,1.450,0.917,1.721,1.173,0.499,0.907,0.844,���k��,3.8,��
2017/11/07,03:20,0.908,1.449,0.914,1.719,1.174,0.498,0.908,0.846,�k��,3.6,��
2017/11/07,03:30,0.908,1.451,0.913,1.717,1.173,0.498,0.907,0.845,�k��,3.8,��
2017/11/07,03:40,0.906,1.450,0.916,1.719,1.174,0.499,0.907,0.845,�k��,3.4,��
2017/11/07,03:50,0.908,1.452,0.915,1.720,1.177,0.499,0.908,0.844,�k��,3.5,��
2017/11/07,04:00,0.909,1.452,0.917,1.718,1.173,0.497,0.908,0.844,�k��,3.3,��
2017/11/07,04:10,0.909,1.450,0.918,1.720,1.173,0.499,0.908,0.846,�k�k��,2.6,��
2017/11/07,04:20,0.906,1.451,0.915,1.718,1.173,0.500,0.908,0.843,�k,2.2,��
2017/11/07,04:30,0.910,1.453,0.915,1.721,1.173,0.499,0.909,0.845,�k,1.7,��
2017/11/07,04:40,0.908,1.450,0.916,1.720,1.175,0.498,0.909,0.846,�k�k��,1.5,��
2017/11/07,04:50,0.909,1.448,0.916,1.720,1.175,0.499,0.909,0.845,�k�k��,1.9,��
2017/11/07,05:00,0.908,1.450,0.918,1.718,1.173,0.501,0.908,0.846,�k�k��,2.0,��
2017/11/07,05:10,0.908,1.452,0.915,1.720,1.174,0.499,0.907,0.844,�k,2.0,��
2017/11/07,05:20,0.910,1.450,0.916,1.717,1.175,0.499,0.907,0.845,�k,0.9,��
2017/11/07,05:30,0.908,1.452,0.918,1.718,1.175,0.500,0.908,0.845,�k�k��,1.5,��
2017/11/07,05:40,0.908,1.451,0.916,1.719,1.174,0.498,0.908,0.846,�k�k��,1.9,��
2017/11/07,05:50,0.910,1.452,0.915,1.718,1.175,0.499,0.908,0.846,�k,1.4,��
2017/11/07,06:00,0.907,1.450,0.916,1.718,1.171,0.498,0.909,0.845,���k��,0.6,��
2017/11/07,06:10,0.908,1.450,0.915,1.718,1.175,0.497,0.908,0.846,���k��,1.7,��
2017/11/07,06:20,0.907,1.453,0.918,1.716,1.175,0.499,0.909,0.846,���쐼,1.2,��
2017/11/07,06:30,0.908,1.450,0.913,1.719,1.175,0.498,0.908,0.846,��,1.4,��
2017/11/07,06:40,0.909,1.452,0.916,1.718,1.173,0.497,0.907,0.845,���k��,0.9,��
2017/11/07,06:50,0.907,1.450,0.915,1.722,1.173,0.498,0.909,0.845,�쐼,2.0,��
2017/11/07,07:00,0.908,1.451,0.916,1.721,1.173,0.498,0.909,0.846,��쐼,2.5,��
2017/11/07,07:10,0.909,1.453,0.917,1.720,1.174,0.498,0.908,0.846,��쐼,2.0,��
2017/11/07,07:20,0.908,1.451,0.917,1.718,1.173,0.500,0.907,0.844,��쐼,3.1,��
2017/11/07,07:30,0.909,1.456,0.916,1.719,1.171,0.499,0.909,0.845,��쐼,3.0,��
2017/11/07,07:40,0.908,1.454,0.916,1.720,1.165,0.500,0.909,0.848,��,2.8,��
2017/11/07,07:50,0.911,1.454,0.915,1.722,1.165,0.499,0.909,0.846,��,2.0,��
2017/11/07,08:00,0.909,1.454,0.915,1.719,1.166,0.499,0.909,0.848,��,1.5,��
2017/11/07,08:10,0.911,1.454,0.918,1.720,1.171,0.500,0.908,0.845,��,2.5,��
2017/11/07,08:20,0.909,1.452,0.918,1.719,1.169,0.500,0.910,0.846,��쐼,2.2,��
2017/11/07,08:30,0.909,1.455,0.918,1.723,1.170,0.500,0.910,0.847,��,2.6,��
2017/11/07,08:40,0.912,1.451,0.915,1.720,1.169,0.499,0.911,0.847,��쐼,3.1,��
2017/11/07,08:50,0.913,1.449,0.917,1.721,1.168,0.500,0.911,0.846,��쐼,2.3,��
2017/11/07,09:00,0.912,1.449,0.918,1.720,1.167,0.499,0.908,0.844,��,2.0,��
2017/11/07,09:10,0.912,1.452,0.918,1.722,1.170,0.502,0.909,0.849,��,2.6,��
2017/11/07,09:20,0.910,1.452,0.920,1.727,1.172,0.501,0.908,0.848,��쐼,2.2,��
2017/11/07,09:30,0.911,1.451,0.917,1.723,1.169,0.502,0.910,0.846,��,1.7,��
2017/11/07,09:40,0.910,1.452,0.919,1.723,1.172,0.500,0.908,0.847,�쓌,2.2,��
2017/11/07,09:50,0.912,1.451,0.920,1.722,1.167,0.499,0.909,0.846,��쓌,2.8,��
2017/11/07,10:00,0.911,1.451,0.918,1.724,1.167,0.500,0.910,0.847,�쓌,4.2,��
2017/11/07,10:10,0.910,1.450,0.917,1.725,1.167,0.500,0.908,0.849,�쓌,3.6,��
2017/11/07,10:20,0.910,1.450,0.920,1.726,1.169,0.500,0.909,0.849,��쓌,3.7,��
2017/11/07,10:30,0.912,1.451,0.917,1.724,1.170,0.499,0.908,0.849,��쓌,5.1,��
2017/11/07,10:40,0.910,1.454,0.918,1.727,1.169,0.497,0.910,0.849,�쓌,3.5,��
2017/11/07,10:50,0.911,1.454,0.918,1.726,1.172,0.498,0.909,0.848,��쓌,4.6,��
2017/11/07,11:00,0.911,1.454,0.918,1.723,1.173,0.497,0.908,0.848,�쓌,3.3,��
2017/11/07,11:10,0.912,1.453,0.917,1.726,1.171,0.498,0.911,0.849,��쓌,3.6,��
2017/11/07,11:20,0.913,1.453,0.918,1.726,1.172,0.499,0.910,0.847,�쓌,3.8,��
2017/11/07,11:30,0.912,1.452,0.918,1.726,1.173,0.498,0.910,0.848,��쓌,2.6,��
2017/11/07,11:40,0.913,1.454,0.921,1.724,1.175,0.499,0.911,0.847,��쓌,4.6,��
2017/11/07,11:50,0.912,1.453,0.918,1.724,1.174,0.498,0.911,0.849,��쓌,5.5,��
2017/11/07,12:00,0.912,1.455,0.920,1.725,1.176,0.501,0.910,0.848,��,4.8,��
2017/11/07,12:10,0.914,1.459,0.921,1.725,1.177,0.500,0.910,0.846,��,4.2,��
2017/11/07,12:20,0.913,1.458,0.920,1.726,1.176,0.501,0.912,0.846,��쓌,3.9,��
2017/11/07,12:30,0.911,1.459,0.919,1.726,1.175,0.502,0.910,0.845,��쓌,3.9,��
2017/11/07,12:40,0.913,1.453,0.918,1.727,1.177,0.500,0.910,0.846,��쓌,4.9,��
2017/11/07,12:50,0.914,1.458,0.922,1.725,1.177,0.500,0.912,0.847,��쓌,5.2,��
2017/11/07,13:00,0.913,1.457,0.919,1.726,1.179,0.502,0.908,0.847,��쓌,6.2,��
2017/11/07,13:10,0.916,1.453,0.919,1.726,1.179,0.499,0.908,0.845,��쓌,6.0,��
2017/11/07,13:20,0.914,1.459,0.922,1.727,1.178,0.499,0.908,0.844,��쓌,6.8,��
2017/11/07,13:30,0.913,1.455,0.924,1.727,1.179,0.500,0.905,0.845,��쓌,6.9,��
2017/11/07,13:40,0.915,1.457,0.921,1.728,1.178,0.501,0.906,0.847,��쓌,6.3,��
2017/11/07,13:50,0.915,1.456,0.922,1.729,1.180,0.500,0.906,0.846,��,5.4,��
2017/11/07,14:00,0.913,1.460,0.920,1.725,1.181,0.501,0.910,0.845,��,3.8,��
2017/11/07,14:10,0.917,1.459,0.921,1.730,1.180,0.500,0.913,0.847,��,3.6,��
2017/11/07,14:20,0.916,1.457,0.923,1.729,1.182,0.500,0.912,0.847,��,4.2,��
2017/11/07,14:30,0.914,1.460,0.922,1.726,1.178,0.501,0.913,0.848,��,3.7,��
2017/11/07,14:40,0.913,1.457,0.924,1.729,1.181,0.499,0.914,0.846,��쓌,3.3,��
2017/11/07,14:50,0.913,1.461,0.921,1.730,1.182,0.502,0.914,0.845,��쓌,4.4,��
2017/11/07,15:00,0.916,1.460,0.921,1.728,1.182,0.500,0.914,0.845,��쓌,4.8,��
2017/11/07,15:10,0.914,1.460,0.919,1.726,1.181,0.500,0.912,0.846,��쓌,4.1,��
2017/11/07,15:20,0.915,1.458,0.922,1.726,1.181,0.500,0.913,0.846,��,3.4,��
2017/11/07,15:30,0.913,1.463,0.924,1.728,1.183,0.501,0.912,0.845,��,3.5,��
2017/11/07,15:40,0.913,1.460,0.920,1.729,1.180,0.501,0.912,0.846,��,2.3,��
2017/11/07,15:50,0.913,1.464,0.921,1.724,1.182,0.500,0.911,0.848,��,2.5,��
2017/11/07,16:00,0.912,1.462,0.921,1.727,1.179,0.503,0.912,0.849,��,2.8,��
2017/11/07,16:10,0.914,1.465,0.921,1.724,1.180,0.502,0.914,0.849,��,3.7,��
2017/11/07,16:20,0.913,1.463,0.920,1.727,1.181,0.501,0.912,0.849,��,2.9,��
2017/11/07,16:30,0.914,1.464,0.921,1.724,1.178,0.502,0.913,0.848,��,1.9,��
2017/11/07,16:40,0.913,1.464,0.921,1.728,1.181,0.502,0.912,0.847,��쐼,1.7,��
2017/11/07,16:50,0.913,1.462,0.924,1.725,1.182,0.502,0.914,0.848,�쐼,1.5,��
2017/11/07,17:00,0.912,1.464,0.924,1.727,1.182,0.501,0.913,0.847,�쐼,1.9,��
2017/11/07,17:10,0.914,1.463,0.924,1.727,1.183,0.503,0.914,0.850,��쐼,0.9,��
2017/11/07,17:20,0.914,1.464,0.926,1.725,1.182,0.501,0.909,0.849,���쐼,0.9,��
2017/11/07,17:30,0.912,1.462,0.923,1.724,1.183,0.502,0.914,0.849,��,1.4,��
2017/11/07,17:40,0.914,1.462,0.924,1.728,1.184,0.502,0.912,0.849,���k��,1.7,��
2017/11/07,17:50,0.915,1.463,0.925,1.728,1.183,0.503,0.910,0.848,�k��,2.0,��
2017/11/07,18:00,0.913,1.461,0.922,1.725,1.179,0.501,0.912,0.848,�k��,1.5,��
2017/11/07,18:10,0.916,1.461,0.923,1.725,1.182,0.503,0.912,0.848,�k�k��,1.4,��
2017/11/07,18:20,0.916,1.461,0.922,1.727,1.182,0.503,0.912,0.847,�k�k��,1.4,��
2017/11/07,18:30,0.914,1.462,0.921,1.724,1.181,0.502,0.909,0.848,�k�k��,1.4,��
2017/11/07,18:40,0.913,1.460,0.924,1.727,1.184,0.501,0.909,0.847,�k,2.3,��
2017/11/07,18:50,0.916,1.463,0.923,1.725,1.183,0.501,0.912,0.848,�k��,1.4,��
2017/11/07,19:00,0.917,1.459,0.922,1.725,1.183,0.504,0.911,0.849,�쐼,0.6,��
2017/11/07,19:10,0.915,1.460,0.923,1.726,1.186,0.502,0.911,0.849,��쐼,1.4,��
2017/11/07,19:20,0.913,1.462,0.924,1.724,1.184,0.501,0.911,0.847,��쐼,1.5,��
2017/11/07,19:30,0.914,1.460,0.922,1.725,1.183,0.504,0.911,0.848,��쐼,1.7,��
2017/11/07,19:40,0.914,1.461,0.920,1.724,1.182,0.502,0.912,0.847,��,2.0,��
2017/11/07,19:50,0.916,1.458,0.921,1.724,1.181,0.502,0.910,0.846,��쐼,1.7,��
2017/11/07,20:00,0.916,1.458,0.923,1.727,1.181,0.502,0.912,0.846,��쐼,0.9,��
2017/11/07,20:10,0.915,1.461,0.920,1.722,1.182,0.502,0.910,0.850,�쐼,1.1,��
2017/11/07,20:20,0.914,1.458,0.923,1.723,1.181,0.502,0.909,0.848,�쐼,1.7,��
2017/11/07,20:30,0.911,1.459,0.922,1.724,1.181,0.500,0.909,0.846,���쐼,1.2,��
2017/11/07,20:40,0.913,1.459,0.921,1.723,1.180,0.502,0.910,0.847,��쐼,0.9,��
2017/11/07,20:50,0.913,1.457,0.920,1.727,1.183,0.501,0.910,0.847,��쐼,2.3,��
2017/11/07,21:00,0.912,1.458,0.922,1.725,1.182,0.502,0.911,0.847,��,3.2,��
2017/11/07,21:10,0.914,1.458,0.921,1.723,1.183,0.501,0.911,0.847,��쐼,2.8,��
2017/11/07,21:20,0.914,1.457,0.923,1.724,1.181,0.500,0.910,0.847,��쐼,3.7,��
2017/11/07,21:30,0.912,1.457,0.922,1.722,1.182,0.502,0.911,0.848,��,3.8,��
2017/11/07,21:40,0.915,1.458,0.922,1.726,1.182,0.500,0.912,0.846,��,3.1,��
2017/11/07,21:50,0.914,1.460,0.921,1.724,1.183,0.501,0.911,0.848,��쐼,4.0,��
2017/11/07,22:00,0.912,1.458,0.922,1.726,1.180,0.502,0.912,0.848,��쐼,3.2,��
2017/11/07,22:10,0.913,1.458,0.922,1.724,1.180,0.501,0.909,0.847,��쐼,3.4,��
2017/11/07,22:20,0.910,1.456,0.924,1.725,1.180,0.501,0.909,0.848,��쐼,3.7,��
2017/11/07,22:30,0.911,1.456,0.922,1.729,1.180,0.501,0.910,0.845,�쐼,5.9,��
2017/11/07,22:40,0.913,1.458,0.923,1.724,1.181,0.500,0.909,0.847,���쐼,6.3,��
2017/11/07,22:50,0.911,1.455,0.920,1.724,1.180,0.501,0.908,0.847,���쐼,6.7,��
2017/11/07,23:00,0.911,1.456,0.924,1.722,1.181,0.501,0.911,0.846,���쐼,5.4,��
2017/11/07,23:10,0.913,1.456,0.922,1.724,1.180,0.503,0.910,0.849,���쐼,5.4,��
2017/11/07,23:20,0.912,1.457,0.922,1.722,1.182,0.501,0.912,0.847,���쐼,5.4,��
2017/11/07,23:30,0.913,1.456,0.924,1.724,1.182,0.501,0.909,0.848,���쐼,5.0,��
2017/11/07,23:40,0.914,1.458,0.922,1.724,1.181,0.503,0.912,0.847,���쐼,4.8,��
2017/11/07,23:50,0.911,1.457,0.922,1.723,1.182,0.500,0.911,0.848,���쐼,3.6,��
